CW8484 Weather Reports


Display with metric or nautical units.
time (UTC)temp
F
wind
direction
speed
MPH
gust
MPH
rain 1hr
in
rain 24hr
in
rain mn
in
humidity
%
barometer
mb
20260508122404 42 226 2.0 11.0 0.00 0.00 0.00 74 1008.5
20260508121446 42 187 1.0 7.0 0.00 0.00 0.00 74 1008.4
20260508120403 42 209 3.0 9.0 0.00 0.00 0.00 73 1008.3
20260508115403 41 233 4.0 9.0 0.00 0.00 0.00 72 1008.3
20260508114403 42 239 2.0 8.0 0.00 0.00 0.00 73 1008.1
20260508113424 41 161 2.0 12.0 0.00 0.00 0.00 73 1008.1
20260508112403 41 223 2.0 8.0 0.00 0.00 0.00 74 1008.1
20260508111403 41 222 0.0 7.0 0.00 0.00 0.00 74 1007.9
20260508110403 41 206 2.0 7.0 0.00 0.00 0.00 74 1007.8
20260508105404 40 228 4.0 9.0 0.00 0.00 0.00 74 1007.7
20260508104403 40 195 2.0 9.0 0.00 0.00 0.00 75 1007.7
20260508103404 40 226 3.0 10.0 0.00 0.00 0.00 76 1007.6
20260508102403 39 220 2.0 7.0 0.00 0.00 0.00 77 1007.4
20260508101403 39 202 1.0 6.0 0.00 0.00 0.00 77 1007.3
20260508100402 39 208 0.0 3.0 0.00 0.00 0.00 76 1007.1
20260508095403 39 208 0.0 5.0 0.00 0.00 0.00 76 1007.1
20260508094403 39 216 0.0 8.0 0.00 0.00 0.00 77 1007.0
20260508093403 39 223 3.0 8.0 0.00 0.00 0.00 78 1007.0
20260508092402 38 211 2.0 6.0 0.00 0.00 0.00 79 1006.9
20260508091403 38 211 1.0 7.0 0.00 0.00 0.00 79 1006.8
20260508090402 38 213 1.0 6.0 0.00 0.00 0.00 79 1006.8
20260508085403 38 205 2.0 8.0 0.00 0.00 0.00 79 1006.8
20260508084403 37 184 2.0 6.0 0.00 0.00 0.00 79 1006.8
20260508083403 37 196 2.0 5.0 0.00 0.00 0.00 79 1006.8
20260508082402 37 197 1.0 5.0 0.00 0.00 0.00 78 1006.8
20260508081403 37 199 2.0 5.0 0.00 0.00 0.00 79 1006.9
20260508080404 37 198 0.0 6.0 0.00 0.00 0.00 79 1006.8
20260508075403 36 224 1.0 5.0 0.00 0.00 0.00 79 1006.8
20260508074403 37 220 0.0 4.0 0.00 0.00 0.00 78 1006.7
20260508073403 37 225 2.0 5.0 0.00 0.00 0.00 77 1006.7
20260508072403 38 225 0.0 3.0 0.00 0.00 0.00 78 1006.7
20260508071403 39 226 0.0 4.0 0.00 0.00 0.00 75 1006.7
20260508070403 39 225 0.0 5.0 0.00 0.00 0.00 76 1006.8
20260508065403 39 234 2.0 5.0 0.00 0.00 0.00 76 1006.8
20260508064424 39 216 3.0 6.0 0.00 0.00 0.00 75 1006.9
20260508063403 39 205 2.0 6.0 0.00 0.00 0.00 75 1006.9
20260508062403 39 217 2.0 6.0 0.00 0.00 0.00 73 1006.8
20260508061403 39 194 2.0 7.0 0.00 0.00 0.00 72 1006.8
20260508060403 40 214 2.0 7.0 0.00 0.00 0.00 71 1006.9
20260508055403 41 198 1.0 9.0 0.00 0.00 0.00 69 1006.9
20260508054403 41 211 2.0 8.0 0.00 0.00 0.00 69 1007.0
20260508053424 41 216 2.0 7.0 0.00 0.00 0.00 70 1007.0
20260508052403 41 185 0.0 6.0 0.00 0.00 0.00 71 1007.0
20260508051403 41 167 1.0 6.0 0.00 0.00 0.00 69 1007.1
20260508050403 41 157 0.0 5.0 0.00 0.00 0.00 70 1007.1
20260508045403 42 157 0.0 5.0 0.00 0.00 0.00 69 1007.2
20260508044402 42 182 1.0 6.0 0.00 0.00 0.00 68 1007.3
20260508043424 42 190 1.0 4.0 0.00 0.00 0.00 68 1007.3
20260508042403 42 190 1.0 7.0 0.00 0.00 0.00 67 1007.3
20260508041402 42 213 0.0 3.0 0.00 0.00 0.00 67 1007.4
20260508040403 43 216 1.0 7.0 0.00 0.00 0.00 65 1007.3
20260508034403 43 216 1.0 6.0 0.00 0.01 0.00 64 1007.3
20260508033445 42 235 1.0 5.0 0.00 0.01 0.00 65 1007.2
20260508032423 43 240 0.0 4.0 0.00 0.01 0.00 67 1007.2
20260508031424 43 244 0.0 3.0 0.00 0.01 0.00 65 1007.3
20260508030424 43 255 1.0 3.0 0.00 0.01 0.00 62 1007.4
20260508025402 43 256 1.0 4.0 0.00 0.01 0.00 61 1007.3
20260508024404 43 258 0.0 2.0 0.00 0.01 0.00 63 1007.3
20260508023403 42 258 1.0 6.0 0.00 0.01 0.00 63 1007.3
20260508022404 42 260 0.0 3.0 0.00 0.01 0.00 61 1007.4
20260508021404 42 261 1.0 4.0 0.00 0.01 0.00 63 1007.3
20260508015425 42 262 1.0 3.0 0.00 0.01 0.00 62 1007.3
20260508014403 42 263 0.0 0.0 0.00 0.01 0.00 62 1007.3
20260508013404 42 263 0.0 0.0 0.00 0.01 0.00 63 1007.2
20260508012404 42 263 0.0 0.0 0.00 0.01 0.00 65 1007.1
20260508011403 42 263 0.0 0.0 0.00 0.01 0.00 65 1007.1
20260508010404 42 263 0.0 0.0 0.00 0.01 0.00 66 1007.1
20260508005403 42 263 0.0 0.0 0.00 0.01 0.00 62 1007.1
20260508004404 43 263 0.0 7.0 0.00 0.01 0.00 61 1007.0
20260508003403 44 261 1.0 4.0 0.00 0.01 0.00 57 1006.8
20260508002404 45 261 2.0 7.0 0.00 0.01 0.00 55 1006.8
20260508001404 45 256 3.0 7.0 0.00 0.01 0.00 52 1006.7
20260508000405 46 252 1.0 9.0 0.00 0.01 0.00 52 1006.7
20260507235404 48 235 2.0 10.0 0.00 0.01 0.00 50 1006.7
20260507234403 49 242 2.0 5.0 0.00 0.01 0.00 48 1006.6
20260507233404 50 242 3.0 7.0 0.00 0.01 0.00 47 1006.6
20260507232403 49 247 2.0 9.0 0.00 0.01 0.00 46 1006.6
20260507231404 48 259 4.0 12.0 0.00 0.01 0.00 49 1006.6
20260507230403 48 232 3.0 13.0 0.00 0.01 0.00 47 1006.6
20260507225404 49 243 6.0 16.0 0.00 0.01 0.00 45 1006.6
20260507224403 51 253 8.0 14.0 0.00 0.01 0.00 43 1006.5
20260507223404 50 219 5.0 12.0 0.00 0.01 0.00 48 1006.6
20260507222403 49 247 8.0 14.0 0.00 0.01 0.00 46 1006.6
20260507221404 50 234 6.0 12.0 0.00 0.01 0.00 45 1006.7
20260507220404 50 243 7.0 14.0 0.00 0.01 0.00 45 1006.6
20260507215403 50 254 6.0 14.0 0.00 0.01 0.00 45 1006.7
20260507214404 50 217 5.0 11.0 0.00 0.01 0.00 46 1006.7
20260507213425 50 257 7.0 12.0 0.00 0.01 0.00 46 1006.7
20260507212403 50 244 7.0 16.0 0.00 0.01 0.00 44 1006.7
20260507211404 50 237 4.0 13.0 0.00 0.02 0.00 45 1006.6
20260507210403 50 223 7.0 11.0 0.00 0.02 0.00 45 1006.6
20260507205404 49 252 4.0 16.0 0.00 0.02 0.00 48 1006.5
20260507204403 50 249 8.0 13.0 0.00 0.02 0.00 45 1006.3
20260507203403 50 272 1.0 16.0 0.00 0.02 0.00 48 1006.3
20260507202403 50 255 7.0 17.0 0.00 0.03 0.00 46 1006.4
20260507201425 50 270 8.0 19.0 0.00 0.04 0.00 45 1006.2
20260507200404 50 257 9.0 18.0 0.00 0.04 0.00 44 1006.4
20260507195403 51 261 6.0 14.0 0.00 0.05 0.00 45 1006.4
20260507194425 50 265 7.0 15.0 0.00 0.05 0.00 50 1006.5
20260507193404 51 254 7.0 15.0 0.00 0.06 0.00 43 1006.5
20260507192403 51 254 9.0 17.0 0.00 0.06 0.00 44 1006.5
20260507191404 52 256 7.0 16.0 0.00 0.06 0.00 45 1006.4
20260507190403 53 245 6.0 17.0 0.00 0.06 0.00 42 1006.5
20260507185404 52 274 8.0 17.0 0.00 0.06 0.00 44 1006.6
20260507184403 52 261 2.0 19.0 0.00 0.06 0.00 45 1006.6
20260507183446 51 264 6.0 13.0 0.00 0.07 0.00 49 1006.6
20260507182403 51 222 4.0 19.0 0.00 0.07 0.00 44 1006.6
20260507181403 50 245 6.0 13.0 0.00 0.08 0.00 46 1006.7
20260507180425 50 238 9.0 16.0 0.00 0.08 0.00 46 1006.8
20260507175403 50 248 9.0 18.0 0.00 0.08 0.00 47 1006.7
20260507174404 50 253 7.0 14.0 0.00 0.08 0.00 48 1006.7
20260507173425 50 259 8.0 16.0 0.00 0.08 0.00 46 1006.7
20260507172424 52 274 4.0 18.0 0.00 0.09 0.00 46 1006.6
20260507171403 52 241 8.0 18.0 0.00 0.09 0.00 48 1006.6
20260507170403 52 216 9.0 15.0 0.00 0.10 0.00 47 1006.8
20260507165403 53 213 10.0 21.0 0.00 0.11 0.00 48 1006.9
20260507164403 53 226 6.0 21.0 0.00 0.12 0.00 48 1007.0
20260507163403 53 245 10.0 17.0 0.00 0.12 0.00 50 1007.1
20260507162404 52 215 7.0 16.0 0.00 0.14 0.00 48 1007.3
20260507161403 51 172 5.0 17.0 0.00 0.15 0.00 52 1007.3
20260507160404 50 215 7.0 13.0 0.00 0.16 0.00 54 1007.4
20260507155403 51 199 6.0 13.0 0.00 0.18 0.00 54 1007.4
20260507154403 50 251 8.0 19.0 0.00 0.19 0.00 56 1007.6
20260507153403 50 222 8.0 18.0 0.00 0.21 0.00 59 1007.6
20260507152404 49 250 10.0 24.0 0.00 0.23 0.00 58 1007.7
20260507151403 49 252 11.0 20.0 0.00 0.25 0.00 58 1007.8
20260507150403 48 241 8.0 18.0 0.00 0.28 0.00 60 1007.9
20260507145403 48 239 7.0 15.0 0.00 0.29 0.00 57 1007.6
20260507144403 48 194 5.0 19.0 0.00 0.31 0.00 65 1007.7
20260507143424 46 200 6.0 18.0 0.00 0.31 0.00 66 1007.8
20260507142446 47 220 7.0 16.0 0.00 0.33 0.00 66 1007.8
20260507141403 46 246 7.0 17.0 0.00 0.33 0.00 69 1007.8
20260507140425 46 223 7.0 20.0 0.00 0.34 0.00 71 1007.8
20260507135424 46 218 9.0 16.0 0.00 0.36 0.00 71 1007.8
20260507134403 45 225 9.0 21.0 0.00 0.36 0.00 73 1007.8
20260507133403 45 222 8.0 18.0 0.00 0.37 0.00 73 1007.7
20260507132403 44 226 6.0 14.0 0.00 0.37 0.00 75 1007.7
20260507131403 44 223 7.0 17.0 0.00 0.37 0.00 74 1007.8
20260507130403 44 237 7.0 20.0 0.00 0.37 0.00 77 1007.9
20260507125403 43 264 11.0 17.0 0.00 0.38 0.00 78 1007.9
20260507124404 43 252 8.0 16.0 0.00 0.38 0.00 76 1007.8
20260507123403 43 241 8.0 16.0 0.00 0.39 0.00 78 1007.6